When you browse on this site, cookies collect data to enhance your experience and personalize the content and advertising you see.
Visit our Privacy Policy to learn more. By continuing to use the site, you agree to this use of cookies and data.
  • In Latvia
  • List of Countries
  • For 7 days
  • Water Temperature
  • Weather Map
  • Weather Widgets
  • user-avatar
    Login

    Hourly Weather Eisenstadt

    Today, 24 February, Monday

    Time Temperature Precipitation Wind Pressure Humidity
    00:00 +10°C° 0 mm 4 mps 719 mmHg 72%
    01:00 +10°C° 0 mm 4 mps 718 mmHg 75%
    02:00 +8°C° 0.4 mm 5 mps 719 mmHg 76%
    03:00 +7°C° 0.4 mm 6 mps 720 mmHg 76%
    04:00 +6°C° 0.4 mm 7 mps 721 mmHg 77%
    05:00 +4°C° 0.2 mm 6 mps 723 mmHg 73%
    06:00 +3°C° 0.2 mm 5 mps 724 mmHg 70%
    07:00 +3°C° 0 mm 4 mps 725 mmHg 66%
    08:00 +4°C° 0 mm 4 mps 726 mmHg 61%
    09:00 +5°C° 0 mm 4 mps 726 mmHg 55%
    10:00 +6°C° 0 mm 4 mps 727 mmHg 50%
    11:00 +7°C° 0 mm 3 mps 727 mmHg 46%
    12:00 +8°C° 0 mm 3 mps 727 mmHg 42%
    13:00 +9°C° 0 mm 2 mps 727 mmHg 38%
    14:00 +8°C° 0 mm 2 mps 726 mmHg 45%
    15:00 +8°C° 0 mm 3 mps 726 mmHg 51%
    16:00 +8°C° 0 mm 3 mps 725 mmHg 58%
    17:00 +7°C° 0.1 mm 3 mps 724 mmHg 60%
    18:00 +5°C° 0.1 mm 3 mps 724 mmHg 62%
    19:00 +5°C° 0.1 mm 4 mps 723 mmHg 65%
    20:00 +4°C° 0 mm 4 mps 723 mmHg 67%
    21:00 +4°C° 0 mm 4 mps 722 mmHg 70%
    22:00 +3°C° 0 mm 4 mps 721 mmHg 72%
    23:00 +3°C° 0 mm 4 mps 721 mmHg 74%

    Tomorrow, 25 February, Tuesday

    Time Temperature Precipitation Wind Pressure Humidity
    00:00 +3°C° 0 mm 4 mps 720 mmHg 76%
    01:00 +3°C° 0 mm 3 mps 720 mmHg 79%
    02:00 +3°C° 0 mm 3 mps 719 mmHg 80%
    03:00 +3°C° 0 mm 3 mps 718 mmHg 80%
    04:00 +4°C° 0 mm 2 mps 718 mmHg 81%
    05:00 +4°C° 0 mm 2 mps 717 mmHg 82%
    06:00 +4°C° 0 mm 2 mps 717 mmHg 83%
    07:00 +4°C° 0 mm 2 mps 717 mmHg 84%
    08:00 +6°C° 0 mm 2 mps 717 mmHg 77%
    09:00 +8°C° 0 mm 2 mps 716 mmHg 70%
    10:00 +10°C° 0 mm 2 mps 716 mmHg 64%
    11:00 +10°C° 0 mm 2 mps 716 mmHg 61%
    12:00 +12°C° 0 mm 2 mps 715 mmHg 58%
    13:00 +13°C° 0 mm 2 mps 714 mmHg 56%
    14:00 +13°C° 0 mm 2 mps 714 mmHg 58%
    15:00 +13°C° 0 mm 2 mps 713 mmHg 60%
    16:00 +13°C° 0 mm 2 mps 712 mmHg 63%
    17:00 +12°C° 0.1 mm 1 mps 712 mmHg 68%
    18:00 +11°C° 0.1 mm 1 mps 712 mmHg 73%
    19:00 +9°C° 0.1 mm 1 mps 712 mmHg 78%
    20:00 +9°C° 0.1 mm 1 mps 711 mmHg 80%
    21:00 +9°C° 0.1 mm 1 mps 711 mmHg 82%
    22:00 +8°C° 0.1 mm 1 mps 711 mmHg 85%
    23:00 +8°C° 0.7 mm 1 mps 710 mmHg 87%

    Day after tomorrow, 26 February, Wednesday

    Time Temperature Precipitation Wind Pressure Humidity
    00:00 +8°C° 0.7 mm 1 mps 710 mmHg 89%
    01:00 +7°C° 0.7 mm 1 mps 709 mmHg 92%
    02:00 +7°C° 1.1 mm 1 mps 709 mmHg 91%
    03:00 +6°C° 1.1 mm 2 mps 708 mmHg 90%
    04:00 +6°C° 1.1 mm 2 mps 708 mmHg 89%
    05:00 +5°C° 0.3 mm 2 mps 708 mmHg 87%
    06:00 +5°C° 0.3 mm 2 mps 708 mmHg 85%
    07:00 +5°C° 0.3 mm 2 mps 707 mmHg 83%
    08:00 +4°C° 0.6 mm 3 mps 708 mmHg 80%
    09:00 +4°C° 0.6 mm 3 mps 708 mmHg 77%
    10:00 +3°C° 0.6 mm 4 mps 708 mmHg 74%
    11:00 +2°C° 0.2 mm 5 mps 708 mmHg 67%
    12:00 +2°C° 0.2 mm 5 mps 708 mmHg 60%
    13:00 +2°C° 0.2 mm 5 mps 708 mmHg 54%
    14:00 +2°C° 0 mm 5 mps 708 mmHg 53%
    15:00 +2°C° 0 mm 5 mps 708 mmHg 53%
    16:00 +3°C° 0 mm 4 mps 708 mmHg 53%
    17:00 +3°C° 0 mm 4 mps 709 mmHg 57%
    18:00 +2°C° 0 mm 3 mps 709 mmHg 61%
    19:00 +1°C° 0 mm 3 mps 709 mmHg 66%
    20:00 +1°C° 0 mm 3 mps 709 mmHg 67%
    21:00 0°C° 0 mm 3 mps 710 mmHg 69%
    22:00 0°C° 0 mm 3 mps 710 mmHg 71%
    23:00 0°C° 0 mm 3 mps 710 mmHg 72%

    27 February, Thursday

    Time Temperature Precipitation Wind Pressure Humidity
    00:00 0°C° 0 mm 3 mps 711 mmHg 73%
    01:00 0°C° 0 mm 3 mps 711 mmHg 74%
    02:00 -1°C° 0 mm 4 mps 711 mmHg 73%
    03:00 -2°C° 0 mm 4 mps 711 mmHg 72%
    04:00 -2°C° 0 mm 4 mps 712 mmHg 72%
    05:00 -2°C° 0 mm 4 mps 712 mmHg 72%
    06:00 -2°C° 0 mm 4 mps 713 mmHg 72%
    07:00 -1°C° 0 mm 3 mps 714 mmHg 72%
    08:00 -1°C° 0 mm 4 mps 714 mmHg 66%
    09:00 0°C° 0 mm 5 mps 715 mmHg 60%
    10:00 +2°C° 0 mm 6 mps 715 mmHg 53%
    11:00 +2°C° 0 mm 6 mps 716 mmHg 48%
    12:00 +3°C° 0 mm 6 mps 716 mmHg 44%
    13:00 +4°C° 0 mm 6 mps 716 mmHg 39%
    14:00 +3°C° 0 mm 5 mps 716 mmHg 42%
    15:00 +3°C° 0 mm 5 mps 716 mmHg 44%
    16:00 +3°C° 0 mm 5 mps 715 mmHg 47%
    17:00 +1°C° 0 mm 4 mps 715 mmHg 51%
    18:00 +2°C° 0 mm 2 mps 715 mmHg 55%
    19:00 +2°C° 0 mm 1 mps 715 mmHg 60%
    20:00 +2°C° 0 mm 1 mps 715 mmHg 60%
    21:00 +2°C° 0 mm 1 mps 714 mmHg 61%
    22:00 +2°C° 0 mm 1 mps 714 mmHg 62%
    23:00 +2°C° 0 mm 1 mps 714 mmHg 65%

    28 February, Friday

    Time Temperature Precipitation Wind Pressure Humidity
    00:00 +2°C° 0 mm 1 mps 713 mmHg 69%
    01:00 +1°C° 0 mm 1 mps 713 mmHg 72%
    02:00 +1°C° 0 mm 1 mps 713 mmHg 73%
    03:00 +1°C° 0 mm 1 mps 712 mmHg 75%
    04:00 -2°C° 0 mm 2 mps 712 mmHg 77%
    05:00 -2°C° 0 mm 2 mps 713 mmHg 77%
    06:00 -2°C° 0 mm 3 mps 714 mmHg 78%
    07:00 -2°C° 0 mm 3 mps 715 mmHg 78%
    08:00 -1°C° 0 mm 4 mps 716 mmHg 71%
    09:00 0°C° 0 mm 4 mps 717 mmHg 65%
    10:00 +3°C° 0 mm 4 mps 718 mmHg 58%
    11:00 +4°C° 0 mm 4 mps 719 mmHg 54%
    12:00 +5°C° 0 mm 5 mps 719 mmHg 50%
    13:00 +6°C° 0 mm 5 mps 720 mmHg 46%
    14:00 +6°C° 0 mm 5 mps 720 mmHg 47%
    15:00 +5°C° 0 mm 4 mps 720 mmHg 48%
    16:00 +5°C° 0 mm 3 mps 720 mmHg 49%
    17:00 +5°C° 0 mm 2 mps 720 mmHg 57%
    18:00 +4°C° 0 mm 2 mps 720 mmHg 66%
    19:00 +3°C° 0 mm 1 mps 720 mmHg 74%
    20:00 +3°C° 0 mm 1 mps 720 mmHg 76%
    21:00 +3°C° 0 mm 1 mps 720 mmHg 77%
    22:00 +3°C° 0 mm 1 mps 720 mmHg 79%
    23:00 +2°C° 0 mm 2 mps 719 mmHg 79%

    29 February, Saturday

    Time Temperature Precipitation Wind Pressure Humidity
    00:00 +1°C° 0 mm 3 mps 718 mmHg 79%
    01:00 0°C° 0 mm 4 mps 717 mmHg 80%
    02:00 0°C° 0 mm 4 mps 717 mmHg 80%
    03:00 +1°C° 0 mm 3 mps 716 mmHg 80%
    04:00 +2°C° 0 mm 3 mps 715 mmHg 80%
    05:00 +2°C° 0.1 mm 3 mps 715 mmHg 80%
    06:00 +2°C° 0.1 mm 3 mps 715 mmHg 80%
    07:00 +2°C° 0.1 mm 3 mps 714 mmHg 80%
    08:00 +3°C° 0 mm 3 mps 714 mmHg 76%
    09:00 +4°C° 0 mm 3 mps 714 mmHg 73%
    10:00 +5°C° 0 mm 3 mps 713 mmHg 69%
    11:00 +8°C° 0 mm 3 mps 713 mmHg 65%
    12:00 +8°C° 0 mm 4 mps 712 mmHg 61%
    13:00 +10°C° 0 mm 4 mps 712 mmHg 58%
    14:00 +10°C° 0 mm 4 mps 711 mmHg 60%
    15:00 +11°C° 0 mm 4 mps 710 mmHg 62%
    16:00 +11°C° 0 mm 4 mps 710 mmHg 64%
    17:00 +10°C° 0 mm 4 mps 709 mmHg 68%
    18:00 +8°C° 0 mm 5 mps 708 mmHg 73%
    19:00 +6°C° 0 mm 5 mps 708 mmHg 77%
    20:00 +6°C° 0 mm 5 mps 708 mmHg 78%
    21:00 +6°C° 0 mm 5 mps 709 mmHg 79%
    22:00 +5°C° 0 mm 4 mps 709 mmHg 80%
    23:00 +4°C° 0 mm 4 mps 710 mmHg 75%
    Show more